TimeCST,TemperatureF,Dew PointF,Humidity,Sea Level PressureIn,VisibilityMPH,Wind Direction,Wind SpeedMPH,Gust SpeedMPH,PrecipitationIn,Events,Conditions,WindDirDegrees,DateUTC
12:55 AM,-11.6,-20.0,66,30.53,10.0,SSE,11.5,-,N/A,,Clear,150,2013-02-20 06:55:00
1:55 AM,-12.1,-20.2,67,30.50,10.0,ESE,15.0,-,N/A,,Clear,120,2013-02-20 07:55:00
2:55 AM,-12.3,-20.0,68,30.47,10.0,ESE,16.1,-,N/A,,Clear,120,2013-02-20 08:55:00
3:55 AM,-11.9,-19.7,68,30.45,10.0,SE,17.3,-,N/A,,Clear,130,2013-02-20 09:55:00
4:55 AM,-11.2,-18.8,69,30.45,10.0,SE,13.8,-,N/A,,Clear,130,2013-02-20 10:55:00
5:55 AM,-10.3,-17.5,71,30.44,10.0,SE,20.7,-,N/A,,Clear,130,2013-02-20 11:55:00
6:55 AM,-9.9,-16.6,72,30.43,10.0,ESE,20.7,-,N/A,,Overcast,120,2013-02-20 12:55:00
7:55 AM,-9.2,-15.7,73,30.43,10.0,SE,15.0,-,N/A,,Partly Cloudy,130,2013-02-20 13:55:00
8:55 AM,-8.3,-14.8,73,30.43,10.0,SE,15.0,-,N/A,,Scattered Clouds,130,2013-02-20 14:55:00
9:55 AM,-6.3,-12.8,73,30.42,10.0,SE,17.3,-,N/A,,Overcast,130,2013-02-20 15:55:00
10:55 AM,-4.2,-10.5,74,30.40,10.0,ESE,19.6,-,N/A,,Overcast,120,2013-02-20 16:55:00
11:55 AM,-1.7,-7.6,76,30.38,10.0,SE,20.7,-,N/A,,Overcast,130,2013-02-20 17:55:00
12:55 PM,0.3,-5.8,75,30.35,10.0,ESE,19.6,-,N/A,,Overcast,120,2013-02-20 18:55:00
1:55 PM,3.4,-3.3,74,30.32,10.0,SE,24.2,-,N/A,,Overcast,130,2013-02-20 19:55:00
2:55 PM,5.5,-1.5,73,30.30,10.0,ESE,21.9,-,N/A,,Overcast,120,2013-02-20 20:55:00
3:55 PM,6.8,-0.8,71,30.27,10.0,SE,24.2,-,N/A,,Overcast,130,2013-02-20 21:55:00
4:55 PM,7.2,0.3,74,30.27,10.0,ESE,16.1,-,N/A,,Mostly Cloudy,110,2013-02-20 22:55:00
5:55 PM,5.7,-0.0,77,30.27,10.0,ESE,16.1,-,N/A,,Overcast,120,2013-02-20 23:55:00
6:55 PM,6.6,1.0,78,30.26,10.0,ESE,17.3,-,N/A,,Overcast,120,2013-02-21 00:55:00
7:55 PM,7.2,1.8,79,30.24,10.0,SE,18.4,-,N/A,,Overcast,130,2013-02-21 01:55:00
8:55 PM,8.1,2.8,79,30.24,9.0,SE,17.3,-,0.00,Snow,Light Snow,130,2013-02-21 02:55:00
9:55 PM,9.1,3.9,79,30.25,8.0,SSE,18.4,-,0.00,,Overcast,150,2013-02-21 03:55:00
10:22 PM,8.6,5.0,85,30.25,10.0,SE,19.6,-,N/A,,Overcast,140,2013-02-21 04:22:00
10:32 PM,8.6,5.0,85,30.25,8.0,SSE,19.6,-,N/A,,Overcast,150,2013-02-21 04:32:00
10:46 PM,8.6,3.2,79,30.25,8.0,SE,19.6,-,N/A,Snow,Blowing Snow,140,2013-02-21 04:46:00
10:48 PM,8.6,3.2,79,30.25,9.0,SE,19.6,-,N/A,Snow,Blowing Snow,140,2013-02-21 04:48:00
10:55 PM,9.0,4.3,81,30.25,10.0,SSE,18.4,-,0.00,,Overcast,150,2013-02-21 04:55:00
11:55 PM,9.1,4.1,80,30.25,10.0,SE,17.3,-,N/A,,Overcast,140,2013-02-21 05:55:00